Year,Month,Day,Hour,Minute,Value (Times are PST for temperature in C)
2010,03,26,00,00,5.90
2010,03,26,00,01,5.90
2010,03,26,00,02,5.90
2010,03,26,00,03,5.90
2010,03,26,00,04,5.90
2010,03,26,00,05,5.90
2010,03,26,00,06,5.90
2010,03,26,00,07,5.90
2010,03,26,00,08,5.90
2010,03,26,00,09,5.90
2010,03,26,00,10,5.90
2010,03,26,00,11,5.90
2010,03,26,00,12,5.90
2010,03,26,00,13,5.90
2010,03,26,00,14,5.90
2010,03,26,00,15,5.90
2010,03,26,00,16,5.90
2010,03,26,00,17,5.90
2010,03,26,00,18,5.90
2010,03,26,00,19,5.90
2010,03,26,00,20,5.90
2010,03,26,00,21,5.90
2010,03,26,00,22,5.90
2010,03,26,00,23,5.90
2010,03,26,00,24,5.90
2010,03,26,00,25,5.90
2010,03,26,00,26,5.90
2010,03,26,00,27,5.90
2010,03,26,00,28,5.90
2010,03,26,00,29,5.90
2010,03,26,00,30,5.90
2010,03,26,00,31,5.90
2010,03,26,00,32,5.90
2010,03,26,00,33,5.90
2010,03,26,00,34,5.90
2010,03,26,00,35,5.90
2010,03,26,00,36,5.90
2010,03,26,00,37,5.90
2010,03,26,00,38,5.90
2010,03,26,00,39,5.90
2010,03,26,00,40,5.90
2010,03,26,00,41,5.90
2010,03,26,00,42,5.80
2010,03,26,00,43,5.90
2010,03,26,00,44,5.90
2010,03,26,00,45,5.90
2010,03,26,00,46,5.90
2010,03,26,00,47,5.90
2010,03,26,00,48,5.90
2010,03,26,00,49,5.90
2010,03,26,00,50,5.90
2010,03,26,00,51,5.90
2010,03,26,00,52,5.90
2010,03,26,00,53,5.80
2010,03,26,00,54,5.80
2010,03,26,00,55,5.90
2010,03,26,00,56,5.80
2010,03,26,00,57,5.90
2010,03,26,00,58,5.80
2010,03,26,00,59,5.80
2010,03,26,01,00,5.90
2010,03,26,01,01,5.90
2010,03,26,01,02,5.90
2010,03,26,01,03,5.90
2010,03,26,01,04,5.90
2010,03,26,01,05,5.90
2010,03,26,01,06,5.90
2010,03,26,01,07,5.90
2010,03,26,01,08,5.90
2010,03,26,01,09,5.90
2010,03,26,01,10,5.90
2010,03,26,01,11,5.90
2010,03,26,01,12,5.90
2010,03,26,01,13,5.90
2010,03,26,01,14,5.90
2010,03,26,01,15,5.90
2010,03,26,01,16,5.90
2010,03,26,01,17,5.90
2010,03,26,01,18,5.90
2010,03,26,01,19,6.00
2010,03,26,01,20,5.90
2010,03,26,01,21,6.00
2010,03,26,01,22,5.90
2010,03,26,01,23,6.00
2010,03,26,01,24,6.00
2010,03,26,01,25,6.00
2010,03,26,01,26,6.00
2010,03,26,01,27,6.00
2010,03,26,01,28,6.00
2010,03,26,01,29,6.00
2010,03,26,01,30,6.00
2010,03,26,01,31,6.00
2010,03,26,01,32,6.00
2010,03,26,01,33,6.00
2010,03,26,01,34,6.00
2010,03,26,01,35,6.00
2010,03,26,01,36,6.00
2010,03,26,01,37,6.00
2010,03,26,01,38,6.00
2010,03,26,01,39,6.00
2010,03,26,01,40,6.00
2010,03,26,01,41,6.00
2010,03,26,01,42,6.00
2010,03,26,01,43,6.00
2010,03,26,01,44,6.00
2010,03,26,01,45,6.00
2010,03,26,01,46,5.90
2010,03,26,01,47,5.90
2010,03,26,01,48,5.90
2010,03,26,01,49,6.00
2010,03,26,01,50,5.90
2010,03,26,01,51,5.90
2010,03,26,01,52,5.90
2010,03,26,01,53,6.00
2010,03,26,01,54,6.00
2010,03,26,01,55,5.90
2010,03,26,01,56,6.00
2010,03,26,01,57,5.90
2010,03,26,01,58,6.00
2010,03,26,01,59,6.00
2010,03,26,02,00,6.00
2010,03,26,02,01,6.00
2010,03,26,02,02,6.00
2010,03,26,02,03,5.90
2010,03,26,02,04,6.00
2010,03,26,02,05,6.00
2010,03,26,02,06,6.00
2010,03,26,02,07,6.00
2010,03,26,02,08,6.00
2010,03,26,02,09,6.00
2010,03,26,02,10,6.00
2010,03,26,02,11,6.10
2010,03,26,02,12,6.10
2010,03,26,02,13,6.10
2010,03,26,02,14,6.10
2010,03,26,02,15,6.10
2010,03,26,02,16,6.10
2010,03,26,02,17,6.10
2010,03,26,02,18,6.20
2010,03,26,02,19,6.20
2010,03,26,02,20,6.20
2010,03,26,02,21,6.20
2010,03,26,02,22,6.20
2010,03,26,02,23,6.20
2010,03,26,02,24,6.20
2010,03,26,02,25,6.10
2010,03,26,02,26,6.10
2010,03,26,02,27,6.10
2010,03,26,02,28,6.10
2010,03,26,02,29,6.10
2010,03,26,02,30,6.10
2010,03,26,02,31,6.00
2010,03,26,02,32,6.00
2010,03,26,02,33,6.00
2010,03,26,02,34,6.00
2010,03,26,02,35,6.00
2010,03,26,02,36,6.10
2010,03,26,02,37,6.00
2010,03,26,02,38,6.00
2010,03,26,02,39,6.00
2010,03,26,02,40,6.00
2010,03,26,02,41,6.00
2010,03,26,02,42,6.00
2010,03,26,02,43,6.00
2010,03,26,02,44,6.00
2010,03,26,02,45,6.00
2010,03,26,02,46,6.00
2010,03,26,02,47,6.00
2010,03,26,02,48,6.00
2010,03,26,02,49,6.00
2010,03,26,02,50,6.00
2010,03,26,02,51,5.90
2010,03,26,02,52,6.00
2010,03,26,02,53,6.00
2010,03,26,02,54,5.90
2010,03,26,02,55,6.00
2010,03,26,02,56,5.90
2010,03,26,02,57,5.90
2010,03,26,02,58,5.90
2010,03,26,02,59,5.90
2010,03,26,03,00,5.90
2010,03,26,03,01,6.00
2010,03,26,03,02,6.00
2010,03,26,03,03,6.00
2010,03,26,03,04,6.00
2010,03,26,03,05,6.00
2010,03,26,03,06,6.00
2010,03,26,03,07,6.00
2010,03,26,03,08,6.00
2010,03,26,03,09,6.00
2010,03,26,03,10,6.00
2010,03,26,03,11,6.00
2010,03,26,03,12,5.90
2010,03,26,03,13,5.90
2010,03,26,03,14,5.90
2010,03,26,03,15,5.90
2010,03,26,03,16,5.90
2010,03,26,03,17,5.90
2010,03,26,03,18,5.90
2010,03,26,03,19,5.90
2010,03,26,03,20,5.90
2010,03,26,03,21,5.90
2010,03,26,03,22,5.90
2010,03,26,03,23,5.90
2010,03,26,03,24,5.90
2010,03,26,03,25,5.90
2010,03,26,03,26,5.90
2010,03,26,03,27,5.90
2010,03,26,03,28,5.80
2010,03,26,03,29,5.80
2010,03,26,03,30,5.80
2010,03,26,03,31,5.80
2010,03,26,03,32,5.80
2010,03,26,03,33,5.80
2010,03,26,03,34,5.80
2010,03,26,03,35,5.80
2010,03,26,03,36,5.80
2010,03,26,03,37,5.80
2010,03,26,03,38,5.80
2010,03,26,03,39,5.80
2010,03,26,03,40,5.70
2010,03,26,03,41,5.70
2010,03,26,03,42,5.70
2010,03,26,03,43,5.70
2010,03,26,03,44,5.70
2010,03,26,03,45,5.70
2010,03,26,03,46,5.70
2010,03,26,03,47,5.60
2010,03,26,03,48,5.60
2010,03,26,03,49,5.60
2010,03,26,03,50,5.60
2010,03,26,03,51,5.60
2010,03,26,03,52,5.60
2010,03,26,03,53,5.50
2010,03,26,03,54,5.50
2010,03,26,03,55,5.50
2010,03,26,03,56,5.50
2010,03,26,03,57,5.50
2010,03,26,03,58,5.40
2010,03,26,03,59,5.40
2010,03,26,04,00,5.40
2010,03,26,04,01,5.40
2010,03,26,04,02,5.40
2010,03,26,04,03,5.40
2010,03,26,04,04,5.30
2010,03,26,04,05,5.30
2010,03,26,04,06,5.30
2010,03,26,04,07,5.30
2010,03,26,04,08,5.30
2010,03,26,04,09,5.30
2010,03,26,04,10,5.30
2010,03,26,04,11,5.30
2010,03,26,04,12,5.20
2010,03,26,04,13,5.20
2010,03,26,04,14,5.20
2010,03,26,04,15,5.10
2010,03,26,04,16,5.10
2010,03,26,04,17,5.10
2010,03,26,04,18,5.00
2010,03,26,04,19,5.00
2010,03,26,04,20,5.00
2010,03,26,04,21,5.00
2010,03,26,04,22,5.00
2010,03,26,04,23,4.90
2010,03,26,04,24,4.90
2010,03,26,04,25,4.90
2010,03,26,04,26,4.90
2010,03,26,04,27,4.90
2010,03,26,04,28,4.80
2010,03,26,04,29,4.80
2010,03,26,04,30,4.80
2010,03,26,04,31,4.80
2010,03,26,04,32,4.80
2010,03,26,04,33,4.70
2010,03,26,04,34,4.70
2010,03,26,04,35,4.70
2010,03,26,04,36,4.70
2010,03,26,04,37,4.70
2010,03,26,04,38,4.60
2010,03,26,04,39,4.60
2010,03,26,04,40,4.60
2010,03,26,04,41,4.60
2010,03,26,04,42,4.60
2010,03,26,04,43,4.60
2010,03,26,04,44,4.50
2010,03,26,04,45,4.50
2010,03,26,04,46,4.50
2010,03,26,04,47,4.40
2010,03,26,04,48,4.40
2010,03,26,04,49,4.30
2010,03,26,04,50,4.30
2010,03,26,04,51,4.30
2010,03,26,04,52,4.30
2010,03,26,04,53,4.30
2010,03,26,04,54,4.30
2010,03,26,04,55,4.30
2010,03,26,04,56,4.20
2010,03,26,04,57,4.20
2010,03,26,04,58,4.20
2010,03,26,04,59,4.20
2010,03,26,05,00,4.20
2010,03,26,05,01,4.10
2010,03,26,05,02,4.10
2010,03,26,05,03,4.10
2010,03,26,05,04,4.10
2010,03,26,05,05,4.10
2010,03,26,05,06,4.00
2010,03,26,05,07,4.00
2010,03,26,05,08,4.00
2010,03,26,05,09,4.00
2010,03,26,05,10,4.00
2010,03,26,05,11,4.00
2010,03,26,05,12,4.00
2010,03,26,05,13,4.00
2010,03,26,05,14,4.00
2010,03,26,05,15,3.90
2010,03,26,05,16,3.90
2010,03,26,05,17,3.90
2010,03,26,05,18,3.90
2010,03,26,05,19,3.80
2010,03,26,05,20,3.80
2010,03,26,05,21,3.80
2010,03,26,05,22,3.80
2010,03,26,05,23,3.80
2010,03,26,05,24,3.70
2010,03,26,05,25,3.70
2010,03,26,05,26,3.70
2010,03,26,05,27,3.70
2010,03,26,05,28,3.60
2010,03,26,05,29,3.60
2010,03,26,05,30,3.60
2010,03,26,05,31,3.50
2010,03,26,05,32,3.50
2010,03,26,05,33,3.50
2010,03,26,05,34,3.50
2010,03,26,05,35,3.40
2010,03,26,05,36,3.40
2010,03,26,05,37,3.40
2010,03,26,05,38,3.40
2010,03,26,05,39,3.40
2010,03,26,05,40,3.40
2010,03,26,05,41,3.40
2010,03,26,05,42,3.30
2010,03,26,05,43,3.30
2010,03,26,05,44,3.30
2010,03,26,05,45,3.30
2010,03,26,05,46,3.30
2010,03,26,05,47,3.20
2010,03,26,05,48,3.20
2010,03,26,05,49,3.20
2010,03,26,05,50,3.10
2010,03,26,05,51,3.10
2010,03,26,05,52,3.10
2010,03,26,05,53,3.10
2010,03,26,05,54,3.00
2010,03,26,05,55,3.00
2010,03,26,05,56,3.00
2010,03,26,05,57,2.90
2010,03,26,05,58,2.90
2010,03,26,05,59,2.90
2010,03,26,06,00,2.90
2010,03,26,06,01,2.90
2010,03,26,06,02,2.90
2010,03,26,06,03,2.90
2010,03,26,06,04,2.90
2010,03,26,06,05,2.90
2010,03,26,06,06,2.90
2010,03,26,06,07,2.80
2010,03,26,06,08,2.80
2010,03,26,06,09,2.80
2010,03,26,06,10,2.80
2010,03,26,06,11,2.80
2010,03,26,06,12,2.80
2010,03,26,06,13,2.80
2010,03,26,06,14,2.70
2010,03,26,06,15,2.70
2010,03,26,06,16,2.80
2010,03,26,06,17,2.80
2010,03,26,06,18,2.90
2010,03,26,06,19,2.90
2010,03,26,06,20,2.90
2010,03,26,06,21,2.90
2010,03,26,06,22,2.90
2010,03,26,06,23,2.90
2010,03,26,06,24,2.80
2010,03,26,06,25,2.80
2010,03,26,06,26,2.80
2010,03,26,06,27,2.70
2010,03,26,06,28,2.70
2010,03,26,06,29,2.70
2010,03,26,06,30,2.70
2010,03,26,06,31,2.70
2010,03,26,06,32,2.70
2010,03,26,06,33,2.70
2010,03,26,06,34,2.70
2010,03,26,06,35,2.70
2010,03,26,06,36,2.70
2010,03,26,06,37,2.70
2010,03,26,06,38,2.60
2010,03,26,06,39,2.60
2010,03,26,06,40,2.60
2010,03,26,06,41,2.60
2010,03,26,06,42,2.60
2010,03,26,06,43,2.60
2010,03,26,06,44,2.60
2010,03,26,06,45,2.60
2010,03,26,06,46,2.60
2010,03,26,06,47,2.60
2010,03,26,06,48,2.50
2010,03,26,06,49,2.50
2010,03,26,06,50,2.40
2010,03,26,06,51,2.40
2010,03,26,06,52,2.30
2010,03,26,06,53,2.30
2010,03,26,06,54,2.20
2010,03,26,06,55,2.20
2010,03,26,06,56,2.20
2010,03,26,06,57,2.20
2010,03,26,06,58,2.20
2010,03,26,06,59,2.20
2010,03,26,07,00,2.20
2010,03,26,07,01,2.20
2010,03,26,07,02,2.30
2010,03,26,07,03,2.30
2010,03,26,07,04,2.30
2010,03,26,07,05,2.30
2010,03,26,07,06,2.30
2010,03,26,07,07,2.30
2010,03,26,07,08,2.30
2010,03,26,07,09,2.30
2010,03,26,07,10,2.30
2010,03,26,07,11,2.30
2010,03,26,07,12,2.30
2010,03,26,07,13,2.30
2010,03,26,07,14,2.30
2010,03,26,07,15,2.30
2010,03,26,07,16,2.30
2010,03,26,07,17,2.30
2010,03,26,07,18,2.30
2010,03,26,07,19,2.30
2010,03,26,07,20,2.30
2010,03,26,07,21,2.30
2010,03,26,07,22,2.30
2010,03,26,07,23,2.30
2010,03,26,07,24,2.30
2010,03,26,07,25,2.30
2010,03,26,07,26,2.30
2010,03,26,07,27,2.40
2010,03,26,07,28,2.40
2010,03,26,07,29,2.40
2010,03,26,07,30,2.40
2010,03,26,07,31,2.40
2010,03,26,07,32,2.40
2010,03,26,07,33,2.50
2010,03,26,07,34,2.50
2010,03,26,07,35,2.50
2010,03,26,07,36,2.50
2010,03,26,07,37,2.50
2010,03,26,07,38,2.40
2010,03,26,07,39,2.40
2010,03,26,07,40,2.40
2010,03,26,07,41,2.40
2010,03,26,07,42,2.40
2010,03,26,07,43,2.50
2010,03,26,07,44,2.50
2010,03,26,07,45,2.60
2010,03,26,07,46,2.60
2010,03,26,07,47,2.70
2010,03,26,07,48,2.70
2010,03,26,07,49,2.70
2010,03,26,07,50,2.80
2010,03,26,07,51,2.80
2010,03,26,07,52,2.80
2010,03,26,07,53,2.80
2010,03,26,07,54,2.80
2010,03,26,07,55,2.90
2010,03,26,07,56,2.90
2010,03,26,07,57,2.90
2010,03,26,07,58,2.90
2010,03,26,07,59,2.90
2010,03,26,08,00,2.90
2010,03,26,08,01,2.90
2010,03,26,08,02,2.90
2010,03,26,08,03,3.00
2010,03,26,08,04,3.00
2010,03,26,08,05,3.10
2010,03,26,08,06,3.10
2010,03,26,08,07,3.10
2010,03,26,08,08,3.20
2010,03,26,08,09,3.20
2010,03,26,08,10,3.20
2010,03,26,08,11,3.30
2010,03,26,08,12,3.30
2010,03,26,08,13,3.30
2010,03,26,08,14,3.30
2010,03,26,08,15,3.30
2010,03,26,08,16,3.40
2010,03,26,08,17,3.40
2010,03,26,08,18,3.50
2010,03,26,08,19,3.50
2010,03,26,08,20,3.50
2010,03,26,08,21,3.60
2010,03,26,08,22,3.70
2010,03,26,08,23,3.70
2010,03,26,08,24,3.80
2010,03,26,08,25,3.90
2010,03,26,08,26,3.90
2010,03,26,08,27,4.00
2010,03,26,08,28,4.10
2010,03,26,08,29,4.10
2010,03,26,08,30,4.20
2010,03,26,08,31,4.20
2010,03,26,08,32,4.30
2010,03,26,08,33,4.40
2010,03,26,08,34,4.50
2010,03,26,08,35,4.50
2010,03,26,08,36,4.60
2010,03,26,08,37,4.60
2010,03,26,08,38,4.70
2010,03,26,08,39,4.80
2010,03,26,08,40,4.80
2010,03,26,08,41,4.90
2010,03,26,08,42,5.00
2010,03,26,08,43,5.00
2010,03,26,08,44,5.10
2010,03,26,08,45,5.20
2010,03,26,08,46,5.30
2010,03,26,08,47,5.30
2010,03,26,08,48,5.40
2010,03,26,08,49,5.40
2010,03,26,08,50,5.50
2010,03,26,08,51,5.60
2010,03,26,08,52,5.70
2010,03,26,08,53,5.80
2010,03,26,08,54,5.90
2010,03,26,08,55,6.00
2010,03,26,08,56,6.10
2010,03,26,08,57,6.20
2010,03,26,08,58,6.30
2010,03,26,08,59,6.40
2010,03,26,09,00,6.50
2010,03,26,09,01,6.60
2010,03,26,09,02,6.70
2010,03,26,09,03,6.80
2010,03,26,09,04,6.90
2010,03,26,09,05,6.90
2010,03,26,09,06,7.00
2010,03,26,09,07,7.00
2010,03,26,09,08,7.10
2010,03,26,09,09,7.10
2010,03,26,09,10,7.20
2010,03,26,09,11,7.20
2010,03,26,09,12,7.30
2010,03,26,09,13,7.40
2010,03,26,09,14,7.40
2010,03,26,09,15,7.50
2010,03,26,09,16,7.60
2010,03,26,09,17,7.60
2010,03,26,09,18,7.70
2010,03,26,09,19,7.80
2010,03,26,09,20,7.80
2010,03,26,09,21,7.80
2010,03,26,09,22,7.80
2010,03,26,09,23,7.80
2010,03,26,09,24,7.90
2010,03,26,09,25,7.90
2010,03,26,09,26,8.00
2010,03,26,09,27,8.00
2010,03,26,09,28,8.10
2010,03,26,09,29,8.10
2010,03,26,09,30,8.10
2010,03,26,09,31,8.20
2010,03,26,09,32,8.20
2010,03,26,09,33,8.20
2010,03,26,09,34,8.20
2010,03,26,09,35,8.20
2010,03,26,09,36,8.20
2010,03,26,09,37,8.30
2010,03,26,09,38,8.30
2010,03,26,09,39,8.40
2010,03,26,09,40,8.40
2010,03,26,09,41,8.40
2010,03,26,09,42,8.40
2010,03,26,09,43,8.40
2010,03,26,09,44,8.50
2010,03,26,09,45,8.50
2010,03,26,09,46,8.50
2010,03,26,09,47,8.60
2010,03,26,09,48,8.60
2010,03,26,09,49,8.70
2010,03,26,09,50,8.70
2010,03,26,09,51,8.70
2010,03,26,09,52,8.70
2010,03,26,09,53,8.80
2010,03,26,09,54,8.80
2010,03,26,09,55,8.80
2010,03,26,09,56,8.80
2010,03,26,09,57,8.90
2010,03,26,09,58,8.90
2010,03,26,09,59,8.90
2010,03,26,10,00,9.00
2010,03,26,10,01,9.00
2010,03,26,10,02,9.10
2010,03,26,10,03,9.10
2010,03,26,10,04,9.10
2010,03,26,10,05,9.20
2010,03,26,10,06,9.20
2010,03,26,10,07,9.20
2010,03,26,10,08,9.20
2010,03,26,10,09,9.30
2010,03,26,10,10,9.30
2010,03,26,10,11,9.30
2010,03,26,10,12,9.30
2010,03,26,10,13,9.40
2010,03,26,10,14,9.40
2010,03,26,10,15,9.40
2010,03,26,10,16,9.40
2010,03,26,10,17,9.40
2010,03,26,10,18,9.40
2010,03,26,10,19,9.40
2010,03,26,10,20,9.40
2010,03,26,10,21,9.40
2010,03,26,10,22,9.40
2010,03,26,10,23,9.40
2010,03,26,10,24,9.40
2010,03,26,10,25,9.50
2010,03,26,10,26,9.50
2010,03,26,10,27,9.50
2010,03,26,10,28,9.50
2010,03,26,10,29,9.60
2010,03,26,10,30,9.60
2010,03,26,10,31,9.60
2010,03,26,10,32,9.60
2010,03,26,10,33,9.60
2010,03,26,10,34,9.60
2010,03,26,10,35,9.70
2010,03,26,10,36,9.70
2010,03,26,10,37,9.70
2010,03,26,10,38,9.80
2010,03,26,10,39,9.80
2010,03,26,10,40,9.80
2010,03,26,10,41,9.90
2010,03,26,10,42,9.90
2010,03,26,10,43,10.00
2010,03,26,10,44,10.10
2010,03,26,10,45,10.10
2010,03,26,10,46,10.20
2010,03,26,10,47,10.20
2010,03,26,10,48,10.20
2010,03,26,10,49,10.20
2010,03,26,10,50,10.20
2010,03,26,10,51,10.20
2010,03,26,10,52,10.20
2010,03,26,10,53,10.10
2010,03,26,10,54,10.10
2010,03,26,10,55,10.10
2010,03,26,10,56,10.00
2010,03,26,10,57,10.00
2010,03,26,10,58,10.00
2010,03,26,10,59,10.00
2010,03,26,11,00,10.00
2010,03,26,11,01,10.00
2010,03,26,11,02,10.10
2010,03,26,11,03,10.10
2010,03,26,11,04,10.10
2010,03,26,11,05,10.20
2010,03,26,11,06,10.20
2010,03,26,11,07,10.20
2010,03,26,11,08,10.20
2010,03,26,11,09,10.20
2010,03,26,11,10,10.30
2010,03,26,11,11,10.30
2010,03,26,11,12,10.30
2010,03,26,11,13,10.30
2010,03,26,11,14,10.30
2010,03,26,11,15,10.30
2010,03,26,11,16,10.30
2010,03,26,11,17,10.30
2010,03,26,11,18,10.20
2010,03,26,11,19,10.20
2010,03,26,11,20,10.20
2010,03,26,11,21,10.20
2010,03,26,11,22,10.10
2010,03,26,11,23,10.10
2010,03,26,11,24,10.10
2010,03,26,11,25,10.10
2010,03,26,11,26,10.00
2010,03,26,11,27,10.00
2010,03,26,11,28,10.00
2010,03,26,11,29,10.00
2010,03,26,11,30,10.00
2010,03,26,11,31,10.00
2010,03,26,11,32,9.90
2010,03,26,11,33,9.90
2010,03,26,11,34,9.90
2010,03,26,11,35,9.90
2010,03,26,11,36,9.90
2010,03,26,11,37,9.80
2010,03,26,11,38,9.80
2010,03,26,11,39,9.70
2010,03,26,11,40,9.70
2010,03,26,11,41,9.60
2010,03,26,11,42,9.60
2010,03,26,11,43,9.60
2010,03,26,11,44,9.60
2010,03,26,11,45,9.60
2010,03,26,11,46,9.70
2010,03,26,11,47,9.70
2010,03,26,11,48,9.70
2010,03,26,11,49,9.80
2010,03,26,11,50,9.80
2010,03,26,11,51,9.90
2010,03,26,11,52,9.90
2010,03,26,11,53,9.90
2010,03,26,11,54,9.90
2010,03,26,11,55,9.90
2010,03,26,11,56,9.90
2010,03,26,11,57,9.90
2010,03,26,11,58,9.80
2010,03,26,11,59,9.80
2010,03,26,12,00,9.80
2010,03,26,12,01,9.80
2010,03,26,12,02,9.70
2010,03,26,12,03,9.70
2010,03,26,12,04,9.80
2010,03,26,12,05,9.80
2010,03,26,12,06,9.80
2010,03,26,12,07,9.80
2010,03,26,12,08,9.80
2010,03,26,12,09,9.80
2010,03,26,12,10,9.80
2010,03,26,12,11,9.80
2010,03,26,12,12,9.80
2010,03,26,12,13,9.80
2010,03,26,12,14,9.80
2010,03,26,12,15,9.80
2010,03,26,12,16,9.80
2010,03,26,12,17,9.70
2010,03,26,12,18,9.70
2010,03,26,12,19,9.70
2010,03,26,12,20,9.70
2010,03,26,12,21,9.70
2010,03,26,12,22,9.60
2010,03,26,12,23,9.60
2010,03,26,12,24,9.60
2010,03,26,12,25,9.50
2010,03,26,12,26,9.50
2010,03,26,12,27,9.50
2010,03,26,12,28,9.40
2010,03,26,12,29,9.40
2010,03,26,12,30,9.30
2010,03,26,12,31,9.30
2010,03,26,12,32,9.20
2010,03,26,12,33,9.10
2010,03,26,12,34,9.10
2010,03,26,12,35,9.10
2010,03,26,12,36,9.10
2010,03,26,12,37,9.10
2010,03,26,12,38,9.10
2010,03,26,12,39,9.10
2010,03,26,12,40,9.10
2010,03,26,12,41,9.00
2010,03,26,12,42,8.90
2010,03,26,12,43,8.90
2010,03,26,12,44,8.80
2010,03,26,12,45,8.80
2010,03,26,12,46,8.70
2010,03,26,12,47,8.70
2010,03,26,12,48,8.60
2010,03,26,12,49,8.60
2010,03,26,12,50,8.60
2010,03,26,12,51,8.60
2010,03,26,12,52,8.50
2010,03,26,12,53,8.50
2010,03,26,12,54,8.60
2010,03,26,12,55,8.60
2010,03,26,12,56,8.60
2010,03,26,12,57,8.60
2010,03,26,12,58,8.60
2010,03,26,12,59,8.60
2010,03,26,13,00,8.60
2010,03,26,13,01,8.60
2010,03,26,13,02,8.50
2010,03,26,13,03,8.40
2010,03,26,13,04,8.40
2010,03,26,13,05,8.40
2010,03,26,13,06,8.40
2010,03,26,13,07,8.50
2010,03,26,13,08,8.50
2010,03,26,13,09,8.50
2010,03,26,13,10,8.50
2010,03,26,13,11,8.50
2010,03,26,13,12,8.50
2010,03,26,13,13,8.50
2010,03,26,13,14,8.50
2010,03,26,13,15,8.40
2010,03,26,13,16,8.40
2010,03,26,13,17,8.40
2010,03,26,13,18,8.40
2010,03,26,13,19,8.40
2010,03,26,13,20,8.40
2010,03,26,13,21,8.40
2010,03,26,13,22,8.40
2010,03,26,13,23,8.40
2010,03,26,13,24,8.40
2010,03,26,13,25,8.40
2010,03,26,13,26,8.40
2010,03,26,13,27,8.30
2010,03,26,13,28,8.30
2010,03,26,13,29,8.30
2010,03,26,13,30,8.30
2010,03,26,13,31,8.30
2010,03,26,13,32,8.30
2010,03,26,13,33,8.40
2010,03,26,13,34,8.40
2010,03,26,13,35,8.40
2010,03,26,13,36,8.40
2010,03,26,13,37,8.40
2010,03,26,13,38,8.40
2010,03,26,13,39,8.40
2010,03,26,13,40,8.50
2010,03,26,13,41,8.50
2010,03,26,13,42,8.50
2010,03,26,13,43,8.50
2010,03,26,13,44,8.60
2010,03,26,13,45,8.60
2010,03,26,13,46,8.60
2010,03,26,13,47,8.60
2010,03,26,13,48,8.60
2010,03,26,13,49,8.60
2010,03,26,13,50,8.70
2010,03,26,13,51,8.70
2010,03,26,13,52,8.70
2010,03,26,13,53,8.70
2010,03,26,13,54,8.80
2010,03,26,13,55,8.80
2010,03,26,13,56,8.90
2010,03,26,13,57,9.00
2010,03,26,13,58,9.10
2010,03,26,13,59,9.20
2010,03,26,14,00,9.20
2010,03,26,14,01,9.20
2010,03,26,14,02,9.20
2010,03,26,14,03,9.20
2010,03,26,14,04,9.20
2010,03,26,14,05,9.20
2010,03,26,14,06,9.30
2010,03,26,14,07,9.30
2010,03,26,14,08,9.40
2010,03,26,14,09,9.40
2010,03,26,14,10,9.40
2010,03,26,14,11,9.40
2010,03,26,14,12,9.40
2010,03,26,14,13,9.50
2010,03,26,14,14,9.50
2010,03,26,14,15,9.50
2010,03,26,14,16,9.50
2010,03,26,14,17,9.50
2010,03,26,14,18,9.50
2010,03,26,14,19,9.50
2010,03,26,14,20,9.50
2010,03,26,14,21,9.50
2010,03,26,14,22,9.50
2010,03,26,14,23,9.50
2010,03,26,14,24,9.50
2010,03,26,14,25,9.50
2010,03,26,14,26,9.60
2010,03,26,14,27,9.60
2010,03,26,14,28,9.70
2010,03,26,14,29,9.70
2010,03,26,14,30,9.70
2010,03,26,14,31,9.70
2010,03,26,14,32,9.80
2010,03,26,14,33,9.80
2010,03,26,14,34,9.80
2010,03,26,14,35,9.90
2010,03,26,14,36,9.90
2010,03,26,14,37,9.90
2010,03,26,14,38,10.00
2010,03,26,14,39,10.00
2010,03,26,14,40,10.10
2010,03,26,14,41,10.10
2010,03,26,14,42,10.10
2010,03,26,14,43,10.20
2010,03,26,14,44,10.20
2010,03,26,14,45,10.30
2010,03,26,14,46,10.30
2010,03,26,14,47,10.40
2010,03,26,14,48,10.50
2010,03,26,14,49,10.60
2010,03,26,14,50,10.60
2010,03,26,14,51,10.70
2010,03,26,14,52,10.70
2010,03,26,14,53,10.70
2010,03,26,14,54,10.70
2010,03,26,14,55,10.70
2010,03,26,14,56,10.70
2010,03,26,14,57,10.70
2010,03,26,14,58,10.80
2010,03,26,14,59,10.80
2010,03,26,15,00,10.80
2010,03,26,15,01,10.80
2010,03,26,15,02,10.80
2010,03,26,15,03,10.80
2010,03,26,15,04,10.80
2010,03,26,15,05,10.80
2010,03,26,15,06,10.80
2010,03,26,15,07,10.80
2010,03,26,15,08,10.80
2010,03,26,15,09,10.90
2010,03,26,15,10,10.90
2010,03,26,15,11,11.00
2010,03,26,15,12,11.00
2010,03,26,15,13,11.00
2010,03,26,15,14,11.00
2010,03,26,15,15,11.00
2010,03,26,15,16,11.00
2010,03,26,15,17,11.00
2010,03,26,15,18,11.00
2010,03,26,15,19,10.90
2010,03,26,15,20,10.90
2010,03,26,15,21,10.90
2010,03,26,15,22,10.90
2010,03,26,15,23,10.90
2010,03,26,15,24,10.90
2010,03,26,15,25,10.90
2010,03,26,15,26,10.90
2010,03,26,15,27,10.90
2010,03,26,15,28,10.90
2010,03,26,15,29,10.90
2010,03,26,15,30,10.90
2010,03,26,15,31,10.90
2010,03,26,15,32,10.90
2010,03,26,15,33,10.90
2010,03,26,15,34,10.90
2010,03,26,15,35,10.90
2010,03,26,15,36,10.90
2010,03,26,15,37,10.90
2010,03,26,15,38,10.90
2010,03,26,15,39,10.90
2010,03,26,15,40,10.90
2010,03,26,15,41,10.90
2010,03,26,15,42,10.90
2010,03,26,15,43,11.00
2010,03,26,15,44,11.00
2010,03,26,15,45,11.10
2010,03,26,15,46,11.10
2010,03,26,15,47,11.10
2010,03,26,15,48,11.10
2010,03,26,15,49,11.10
2010,03,26,15,50,11.20
2010,03,26,15,51,11.20
2010,03,26,15,52,11.30
2010,03,26,15,53,11.30
2010,03,26,15,54,11.30
2010,03,26,15,55,11.30
2010,03,26,15,56,11.20
2010,03,26,15,57,11.20
2010,03,26,15,58,11.20
2010,03,26,15,59,11.20
2010,03,26,16,00,11.20
2010,03,26,16,01,11.20
2010,03,26,16,02,11.20
2010,03,26,16,03,11.30
2010,03,26,16,04,11.30
2010,03,26,16,05,11.30
2010,03,26,16,06,11.30
2010,03,26,16,07,11.30
2010,03,26,16,08,11.30
2010,03,26,16,09,11.30
2010,03,26,16,10,11.40
2010,03,26,16,11,11.50
2010,03,26,16,12,11.50
2010,03,26,16,13,11.60
2010,03,26,16,14,11.70
2010,03,26,16,15,11.70
2010,03,26,16,16,11.80
2010,03,26,16,17,11.80
2010,03,26,16,18,11.80
2010,03,26,16,19,11.90
2010,03,26,16,20,11.90
2010,03,26,16,21,11.90
2010,03,26,16,22,12.00
2010,03,26,16,23,12.00
2010,03,26,16,24,12.10
2010,03,26,16,25,12.10
2010,03,26,16,26,12.20
2010,03,26,16,27,12.20
2010,03,26,16,28,12.20
2010,03,26,16,29,12.20
2010,03,26,16,30,12.30
2010,03,26,16,31,12.30
2010,03,26,16,32,12.30
2010,03,26,16,33,12.30
2010,03,26,16,34,12.30
2010,03,26,16,35,12.30
2010,03,26,16,36,12.20
2010,03,26,16,37,12.20
2010,03,26,16,38,12.20
2010,03,26,16,39,12.20
2010,03,26,16,40,12.20
2010,03,26,16,41,12.10
2010,03,26,16,42,12.10
2010,03,26,16,43,12.00
2010,03,26,16,44,12.00
2010,03,26,16,45,11.90
2010,03,26,16,46,11.90
2010,03,26,16,47,11.90
2010,03,26,16,48,11.80
2010,03,26,16,49,11.80
2010,03,26,16,50,11.80
2010,03,26,16,51,11.80
2010,03,26,16,52,11.70
2010,03,26,16,53,11.70
2010,03,26,16,54,11.70
2010,03,26,16,55,11.70
2010,03,26,16,56,11.70
2010,03,26,16,57,11.70
2010,03,26,16,58,11.70
2010,03,26,16,59,11.70
2010,03,26,17,00,11.70
2010,03,26,17,01,11.70
2010,03,26,17,02,11.70
2010,03,26,17,03,11.70
2010,03,26,17,04,11.70
2010,03,26,17,05,11.70
2010,03,26,17,06,11.70
2010,03,26,17,07,11.70
2010,03,26,17,08,11.70
2010,03,26,17,09,11.70
2010,03,26,17,10,11.70
2010,03,26,17,11,11.70
2010,03,26,17,12,11.70
2010,03,26,17,13,11.70
2010,03,26,17,14,11.70
2010,03,26,17,15,11.70
2010,03,26,17,16,11.60
2010,03,26,17,17,11.60
2010,03,26,17,18,11.50
2010,03,26,17,19,11.40
2010,03,26,17,20,11.40
2010,03,26,17,21,11.40
2010,03,26,17,22,11.30
2010,03,26,17,23,11.30
2010,03,26,17,24,11.30
2010,03,26,17,25,11.30
2010,03,26,17,26,11.30
2010,03,26,17,27,11.30
2010,03,26,17,28,11.30
2010,03,26,17,29,11.20
2010,03,26,17,30,11.20
2010,03,26,17,31,11.20
2010,03,26,17,32,11.20
2010,03,26,17,33,11.20
2010,03,26,17,34,11.10
2010,03,26,17,35,11.10
2010,03,26,17,36,11.10
2010,03,26,17,37,11.10
2010,03,26,17,38,11.10
2010,03,26,17,39,11.10
2010,03,26,17,40,11.10
2010,03,26,17,41,11.00
2010,03,26,17,42,11.00
2010,03,26,17,43,11.00
2010,03,26,17,44,10.90
2010,03,26,17,45,10.90
2010,03,26,17,46,10.90
2010,03,26,17,47,10.90
2010,03,26,17,48,10.90
2010,03,26,17,49,10.80
2010,03,26,17,50,10.80
2010,03,26,17,51,10.80
2010,03,26,17,52,10.80
2010,03,26,17,53,10.80
2010,03,26,17,54,10.90
2010,03,26,17,55,10.90